Linden, NJ

4:00 AM EDT on July 22, 2017 (GMT -0400)
Linden

Weather History for KLDJ - August, 2013

Change the Weather History Date:

Friday, August 30, 2013

  Actual Average (KEWR) Record (KEWR)
Temperature  
Mean Temperature 74 °F -  
Max Temperature 78 °F 84 °F 100 °F (1953)
Min Temperature 70 °F 66 °F 49 °F (1934)
Cooling Degree Days 9    
Growing Degree Days 24 (Base 50)    
Moisture  
Dew Point 67 °F    
Average Humidity 80    
Maximum Humidity 85    
Minimum Humidity 70    
Precipitation  
Precipitation 0.00 in - - ()
Sea Level Pressure  
Sea Level Pressure 30.00 in    
Wind  
Wind Speed 5 mph (SW)    
Max Wind Speed 12 mph    
Max Gust Speed 16 mph    
Visibility 10 miles    
Events      
Averages and records for this station are not official NWS values.
T = Trace of Precipitation, MM = Missing Value Source: NWS Daily Summary

Daily Weather History Graph

Daily Weather History Graph

Search for Another Location

Airport or City:

Trip Planner

Search our weather history database for the weather conditions in past years. The results will help you decide how hot, cold, wet, or windy it might be!

Date:

Astronomy

Aug. 30, 2013 Rise Set
Actual Time 6:22 AM EDT 7:31 PM EDT
Civil Twilight 5:54 AM EDT 8:00 PM EDT
Nautical Twilight 5:20 AM EDT 8:33 PM EDT
Astronomical Twilight 4:45 AM EDT 9:08 PM EDT
Moon 12:58 AM EDT (8/30) 3:46 PM EDT (8/30)
Length of Visible Light 14h 05m
Length of Day
13h 09m
Waning Crescent, 29% of the Moon is Illuminated
Aug 30
Waning Crescent
Sep 5
New
Sep 12
First Quarter
Sep 19
Full
Sep 26
Last Quarter

Hourly Weather History & Observations

Time (EDT) Temp. Dew Point Humidity Pressure Visibility Wind Dir Wind Speed Gust Speed Precip Events Conditions
12:15 AM 72.3 °F 66.2 °F 81% 30.04 in 10.0 mi SE 8.1 mph - N/A   Overcast
12:35 AM 72.1 °F 65.8 °F 80% 30.04 in 10.0 mi SE 5.8 mph - N/A   Overcast
12:55 AM 72.1 °F 65.3 °F 79% 30.04 in 10.0 mi SE 4.6 mph - N/A   Overcast
1:15 AM 72.1 °F 65.3 °F 79% 30.03 in 10.0 mi SE 4.6 mph - N/A   Overcast
1:35 AM 71.6 °F 65.3 °F 80% 30.02 in 10.0 mi SSE 4.6 mph - N/A   Overcast
1:55 AM 71.6 °F 65.5 °F 81% 30.02 in 10.0 mi South 3.5 mph - N/A   Overcast
2:15 AM 71.2 °F 65.3 °F 81% 30.02 in 10.0 mi SSE 3.5 mph - N/A   Overcast
2:35 AM 71.6 °F 65.3 °F 80% 30.02 in 10.0 mi SSE 3.5 mph - N/A   Overcast
2:55 AM 71.2 °F 65.3 °F 81% 30.01 in 10.0 mi South 3.5 mph - N/A   Overcast
3:15 AM 71.6 °F 65.5 °F 81% 30.01 in 10.0 mi Calm Calm - N/A   Overcast
3:35 AM 71.2 °F 65.5 °F 82% 30.01 in 10.0 mi Calm Calm - N/A   Overcast
3:55 AM 71.2 °F 65.3 °F 81% 30.01 in 10.0 mi Calm Calm - N/A   Overcast
4:15 AM 71.1 °F 65.5 °F 82% 30.01 in 10.0 mi Calm Calm - N/A   Overcast
4:35 AM 71.1 °F 65.5 °F 82% 30.01 in 10.0 mi Calm Calm - N/A   Overcast
4:55 AM 71.1 °F 65.5 °F 82% 30.01 in 10.0 mi WSW 3.5 mph - N/A   Overcast
5:15 AM 70.9 °F 65.7 °F 83% 30.01 in 10.0 mi West 4.6 mph - N/A   Overcast
5:35 AM 70.9 °F 66.0 °F 85% 30.01 in 10.0 mi WSW 4.6 mph - N/A   Overcast
5:55 AM 70.9 °F 65.8 °F 84% 30.01 in 10.0 mi Calm Calm - N/A   Overcast
6:15 AM 70.9 °F 66.0 °F 85% 30.01 in 10.0 mi WSW 3.5 mph - N/A   Overcast
6:35 AM 71.1 °F 66.0 °F 84% 30.01 in 10.0 mi Calm Calm - N/A   Overcast
6:55 AM 71.4 °F 66.2 °F 84% 30.02 in 10.0 mi Calm Calm - N/A   Overcast
7:15 AM 71.6 °F 66.2 °F 83% 30.02 in 10.0 mi Calm Calm - N/A   Overcast
7:35 AM 71.6 °F 66.2 °F 83% 30.03 in 10.0 mi West 3.5 mph - N/A   Overcast
7:55 AM 71.8 °F 66.2 °F 83% 30.02 in 10.0 mi WSW 3.5 mph - N/A   Overcast
8:15 AM 72.1 °F 66.2 °F 82% 30.02 in 10.0 mi West 5.8 mph - N/A   Overcast
8:35 AM 72.9 °F 66.4 °F 80% 30.01 in 10.0 mi West 6.9 mph - N/A   Overcast
8:55 AM 73.0 °F 66.6 °F 80% 30.01 in 10.0 mi West 6.9 mph - N/A   Mostly Cloudy
10:15 AM 76.6 °F 67.5 °F 73% 30.01 in 10.0 mi West 8.1 mph - N/A   Overcast
10:35 AM 75.6 °F 67.1 °F 75% 30.01 in 10.0 mi West 11.5 mph 16.1 mph N/A   Overcast
10:55 AM 76.5 °F 67.6 °F 74% 30.00 in 10.0 mi West 11.5 mph - N/A   Overcast
11:15 AM 77.0 °F 67.6 °F 73% 30.00 in 10.0 mi West 11.5 mph - N/A   Mostly Cloudy
11:35 AM 77.2 °F 68.0 °F 73% 29.99 in 10.0 mi West 9.2 mph - N/A   Mostly Cloudy
11:55 AM 77.7 °F 68.0 °F 72% 29.98 in 10.0 mi West 8.1 mph - N/A   Mostly Cloudy
12:15 PM 78.6 °F 68.0 °F 70% 29.97 in 10.0 mi West 10.4 mph - N/A   Mostly Cloudy
10:55 PM 77.0 °F 70.0 °F 79% 29.89 in 10.0 mi SSW 3.5 mph - N/A   Unknown
11:15 PM 76.6 °F 70.0 °F 80% 29.89 in 10.0 mi Calm Calm - N/A   Clear
11:35 PM 77.0 °F 69.8 °F 78% 29.89 in 10.0 mi SW 3.5 mph - N/A   Clear
11:55 PM 76.3 °F 69.8 °F 80% 29.88 in 10.0 mi SSW 3.5 mph - N/A   Clear